Location: Erraguntapalli
(18.7700°N, 79.7783°E)
Time: 10:09:25
(UTC+00:00)

Cosmos 1825 - Pass Details

Date: 15 November 2019
Orbit: 504 x 508 km, 82.5° (Epoch: 08 December)

Event Time Altitude Azimuth Distance (km) Brightness Sun altitude
Rises 23:59:44 0° 174° (S) 2,590 6.1 -11.6°
Reaches altitude 10° 00:01:53 10° 169° (S) 1,707 5.2 -11.1°
Maximum altitude 00:05:30 50° 93° (E) 645 3.2 -10.3°
Drops below altitude 10° 00:09:08 10° 17° (NNE) 1,711 4.9 -9.5°
Sets 00:11:18 0° 12° (NNE) 2,597 5.7 -9.0°
